Home > Weather > Grimstad > Past weeks

Flag for Norway Past Weather in Grimstad, Norway — Yesterday and Last 2 Weeks

Now
62 °F

Cool.


Feels Like: 62 °F
Forecast: 59 / 69 °F
Wind: 6 mph from South

Location: Torungen Fyr

Current Time: Aug 24, 2016 at 4:04:49 PM

Latest Report: Aug 24, 2016 at 2:00 PM


Visibility: N/A

Pressure: 30.25 "Hg

Humidity: 90%

Dew Point: 59 °F

Location of GrimstadLocation

Past Weather in Grimstad — Graph

°F

Grimstad Temperature Yesterday

Maximum temperature yesterday: 65 °F (at 4:00 PM)
Minimum temperature yesterday: 57 °F (at 7:00 AM)
Average temperature yesterday: 61 °F

High & Low Weather Summary for the Past Weeks

 TemperatureHumidityPressure
High68 °F (Aug 14, 7:00 PM)97% (Aug 12, 4:00 PM)30.27 "Hg (Aug 12, 4:00 PM)
Low49 °F (Aug 11, 5:00 AM)41% (Aug 11, 11:00 AM)29.66 "Hg (Aug 9, 4:00 PM)
Average60 °F78%29.97 "Hg
* Reported Aug 9 4:00 PM — Aug 24 2:00 PM, Grimstad, Weather by CustomWeather, © 2016

Note: Actual official high and low records may vary slightly from our data, if they occured in-between our weather recording intervals... More about our weather records

Advertising

Grimstad Weather History for the Previous 24 Hours

Scroll right to see more
 ConditionsComfort  
Time TempWeatherWind HumidityBarometerVisibility
2:00 PM
Wed, Aug 24
62 °FCool.6 mph90%30.25 "HgN/A
1:00 PM62 °FCool.2 mph91%30.25 "HgN/A
12:00 PM61 °FCool.6 mph92%30.26 "HgN/A
11:00 AM60 °FCool.6 mph93%30.27 "HgN/A
10:00 AM59 °FCool.6 mph95%30.27 "HgN/A
9:00 AM58 °FCool.7 mph97%30.27 "HgN/A
8:00 AM57 °FCool.9 mph96%30.26 "HgN/A
7:00 AM56 °FCool.2 mph96%30.25 "HgN/A
6:00 AM55 °FCool.3 mph96%30.24 "HgN/A
5:00 AM56 °FCool.2 mph95%30.24 "HgN/A
2:00 AM58 °FCool.1 mph94%30.25 "HgN/A
1:00 AM59 °FCool.2 mph94%30.25 "HgN/A
12:00 AM61 °FCool.2 mph94%30.25 "HgN/A
11:00 PM
Tue, Aug 23
61 °FCool.2 mph93%30.25 "HgN/A
10:00 PM63 °FMild.3 mph92%30.24 "HgN/A
9:00 PM63 °FMild.5 mph91%30.23 "HgN/A
8:00 PM64 °FMild.3 mph88%30.23 "HgN/A
7:00 PM64 °FMild.6 mph87%30.24 "HgN/A
6:00 PM64 °FMild.7 mph80%30.23 "HgN/A
5:00 PM65 °FMild.6 mph80%30.23 "HgN/A
4:00 PM65 °FMild.7 mph79%30.24 "HgN/A
Weather by CustomWeather, © 2016

See weather overviewHow to use our weather pages